Tallevast, FL

5:18 PM EST on December 07, 2016 (GMT -0500)
Sarasota-bradenton

Weather History for KSRQ - January, 2001

Change the Weather History Date:

Sunday, January 28, 2001

  Actual Average Record
Temperature  
Mean Temperature 56 °F 62 °F  
Max Temperature 71 °F 71 °F 84 °F (1974)
Min Temperature 42 °F 52 °F 26 °F (1986)
Degree Days  
Heating Degree Days 8 5  
Month to date heating degree days 149  
Since 1 July heating degree days 304  
Cooling Degree Days 0 2  
Month to date cooling degree days 56  
Year to date cooling degree days 56  
Growing Degree Days 6 (Base 50)    
Moisture  
Dew Point 49 °F    
Average Humidity 76    
Maximum Humidity 100    
Minimum Humidity 44    
Precipitation  
Precipitation 0.00 in 0.06 in 1.64 in (1925)
Month to date precipitation 2.33  
Year to date precipitation 2.33  
Sea Level Pressure  
Sea Level Pressure 30.28 in    
Wind  
Wind Speed 5 mph (ENE)    
Max Wind Speed 10 mph    
Max Gust Speed -    
Visibility 8 miles    
Events      
T = Trace of Precipitation, MM = Missing Value Source: NWS Daily Summary

Daily Weather History Graph

Daily Weather History Graph

Search for Another Location

Airport or City:

Trip Planner

Search our weather history database for the weather conditions in past years. The results will help you decide how hot, cold, wet, or windy it might be!

Date:

Astronomy

Jan. 28, 2001 Rise Set
Actual Time 7:18 AM EST 6:08 PM EST
Civil Twilight 6:53 AM EST 6:33 PM EST
Nautical Twilight 6:25 AM EST 7:01 PM EST
Astronomical Twilight 5:57 AM EST 7:28 PM EST
Moon 9:56 AM EST (1/28) 9:50 PM EST (1/28)
Length of Visible Light 11h 39m
Length of Day
10h 50m
Waxing Crescent, 15% of the Moon is Illuminated
Jan 28
Waxing Crescent
Feb 1
First Quarter
Feb 8
Full
Feb 14
Last Quarter
Feb 23
New

Hourly Weather History & Observations

Time (EST) Temp. Windchill Dew Point Humidity Pressure Visibility Wind Dir Wind Speed Gust Speed Precip Events Conditions
12:53 AM 45.0 °F 43.5 °F 45.0 °F 100% 30.27 in 5.0 mi ENE 3.5 mph - N/A   Clear
1:53 AM 45.0 °F 42.6 °F 44.1 °F 97% 30.27 in 6.0 mi ENE 4.6 mph - N/A   Clear
2:53 AM 45.0 °F 43.5 °F 45.0 °F 100% 30.26 in 5.0 mi ENE 3.5 mph - N/A   Clear
3:53 AM 42.1 °F 38.4 °F 42.1 °F 100% 30.26 in 6.0 mi East 5.8 mph - N/A   Clear
4:53 AM 46.0 °F 44.8 °F 45.0 °F 96% 30.27 in 5.0 mi East 3.5 mph - N/A   Clear
5:53 AM 46.0 °F 43.1 °F 44.1 °F 93% 30.27 in 6.0 mi East 5.8 mph - N/A   Clear
6:53 AM 45.0 °F 42.6 °F 44.1 °F 97% 30.29 in 5.0 mi ENE 4.6 mph - N/A   Clear
7:53 AM 46.0 °F 44.8 °F 45.0 °F 96% 30.31 in 4.0 mi ENE 3.5 mph - N/A   Clear
8:53 AM 54.0 °F - 46.0 °F 75% 30.32 in 10.0 mi East 6.9 mph - N/A   Clear
9:53 AM 64.0 °F - 50.0 °F 60% 30.33 in 10.0 mi ENE 8.1 mph - N/A   Clear
10:53 AM 66.9 °F - 50.0 °F 54% 30.33 in 10.0 mi East 5.8 mph - N/A   Clear
11:53 AM 70.0 °F - 48.9 °F 47% 30.31 in 10.0 mi SE 8.1 mph - N/A   Clear
12:53 PM 71.1 °F - 48.0 °F 44% 30.28 in 10.0 mi SE 9.2 mph - N/A   Clear
1:53 PM 69.1 °F - 51.1 °F 53% 30.25 in 10.0 mi SSE 6.9 mph - N/A   Clear
2:53 PM 68.0 °F - 52.0 °F 56% 30.25 in 10.0 mi West 10.4 mph - N/A   Clear
3:53 PM 68.0 °F - 51.1 °F 55% 30.25 in 10.0 mi West 8.1 mph - N/A   Clear
4:53 PM 68.0 °F - 52.0 °F 56% 30.26 in 10.0 mi West 6.9 mph - N/A   Clear
5:53 PM 64.0 °F - 51.1 °F 63% 30.27 in 10.0 mi WNW 6.9 mph - N/A   Clear
6:53 PM 62.1 °F - 53.1 °F 72% 30.27 in 10.0 mi Calm Calm - N/A   Clear
7:53 PM 59.0 °F - 51.1 °F 75% 30.28 in 10.0 mi North 3.5 mph - N/A   Clear
8:53 PM 60.1 °F - 52.0 °F 75% 30.28 in 10.0 mi North 3.5 mph - N/A   Clear
9:53 PM 55.0 °F - 51.1 °F 86% 30.27 in 10.0 mi Calm Calm - N/A   Clear
10:53 PM 57.9 °F - 52.0 °F 81% 30.27 in 10.0 mi NE 5.8 mph - N/A   Clear
11:53 PM 55.9 °F - 52.0 °F 87% 30.25 in 10.0 mi Calm Calm - N/A   Clear